Lotnisko EPSD


Aktualna POGODA w okolicy (METAR i TAF z EPSC)

EPSC 191400Z 16008KT 9999 SCT033 OVC037 13/09 Q1016


TAF EPSC 191130Z 1912/2012 15008KT CAVOK BECMG 1919/1921 21012KT -RA BKN012 TEMPO 1920/1924 3000 RA BR BKN008 PROB40 TEMPO 2000/2006 2000 -DZ BR BKN003 BECMG 2006/2008 21012KT SCT020

Wszystkie o pogodzie w Polsce znajdziesz oczywiście na AWIACJA IMGW

Przed przylotem na lotnisko w Szczecinie-Dąbiu (EPSD) konieczne jest wcześniejsze uzyskanie zgody na lądowanie (PPR)

Znak ICAO: EPSD

Współrzędne lotniska: N532332 E0143802

Współrzędne ATZ: N532228 E0144207

ATZ lotniska: okrąg o promieniu 10km

Granice pionowe ATZ: GND/5500 ft (1676 m) AMSL

Łączność radiowa: Szczecin Radio na częstotliwości 122.2 MHz
Pas trawiasty: RWY 09R – 27L (900m x 50m)

Elewacja: 3 ft (1 m)

Pliki do wglądu lub pobrania:

Plik Opis Wielkość pliku
pdf EPSD Szczecin Dąbie Dane opisowe
135 KB
pdf EPSD plan lotniska Drogi startowe w użyciu
198 KB
pdf EPSD krąd nadlotniskowy Zasady poruszania się po kręgu
100 KB
pdf Regulamin hangarowania Regulamin użytkowania hangaru Aeroklubu Szczecińskiego
108 KB